Location: Foligno
(42.9600°N, 12.7050°E)
Time: 15:05:59
(UTC+02:00)

ISS - Pass Details

Date: 17 July 2018
Orbit: 402 x 408 km, 51.6° (Epoch: 23 July)

Event Time Altitude Azimuth Distance (km) Brightness Sun altitude
Rises 03:14:09 0° 299° (WNW) 2,331 0.0 -20.2°
Reaches altitude 10° 03:16:40 10° 319° (NW) 1,471 -0.8 -20.0°
Maximum altitude 03:19:04 19° 6° (N) 1,064 -0.9 -19.8°
Drops below altitude 10° 03:21:29 10° 53° (NE) 1,472 0.0 -19.6°
Sets 03:24:01 0° 73° (ENE) 2,333 0.8 -19.3°
